Location: Winthrop
(48.4780°N, 120.1850°W)
Time: 00:55:19
(UTC-07:00)

S-56A Canister/Altair - Pass Details

Date: 07 June 2023
Orbit: 640 x 2489 km, 38.9° (Epoch: 29 September)

Event Time Altitude Azimuth Distance (km) Brightness Sun altitude
Rises 02:42:00 0° 280° (W) 6,090 12.0 -15.2°
Reaches altitude 10° 02:46:30 10° 272° (W) 5,143 11.5 -14.9°
Maximum altitude 02:58:49 33° 217° (SW) 3,499 10.3 -13.9°
Drops below altitude 10° 03:09:44 10° 161° (SSE) 4,528 11.1 -13.1°
Sets 03:13:25 0° 152° (SSE) 5,290 11.5 -12.7°
